Location: Monrovia
(34.7865°N, 86.7139°W)
Time: 00:47:42
(UTC+00:00)

Hubble Space Telescope - Pass Details

Date: 14 July 2020
Orbit: 536 x 540 km, 28.5° (Epoch: 12 August)

Event Time Altitude Azimuth Distance (km) Brightness Sun altitude
Rises 03:19:34 0° 261° (W) 2,670 4.7 -22.9°
Reaches altitude 10° 03:22:05 10° 249° (WSW) 1,780 3.6 -23.2°
Enters shadow 03:23:27 17° 234° (SW) 1,379 2.8 -23.4°
